Location: *
(57.8420°S, 159.8600°W)
Time: 04:39:39
(UTC+00:00)

Cosmos 2219 Rocket - Pass Details

Date: 18 May 2021
Orbit: 827 x 847 km, 71.0° (Epoch: 20 June)

Event Time Altitude Azimuth Distance (km) Brightness Sun altitude
Rises 06:30:10 0° 271° (W) 3,397 6.4 -31.6°
Reaches altitude 10° 06:33:01 10° 258° (WSW) 2,465 5.5 -32.0°
Maximum altitude 06:37:45 27° 201° (SSW) 1,587 3.9 -32.6°
Enters shadow 06:38:38 26° 186° (S) 1,625 3.8 -32.7°
